Weather History for KRQE - April, 2013

Change the Weather History Date:

Wednesday, April 24, 2013

  Actual Average Record
Temperature  
Mean Temperature 39 °F -  
Max Temperature 66 °F 64 °F 81 °F (2012)
Min Temperature 12 °F 31 °F 12 °F (2013)
Degree Days  
Heating Degree Days 26    
Moisture  
Dew Point -3 °F    
Average Humidity 16    
Maximum Humidity 39    
Minimum Humidity 8    
Precipitation  
Precipitation 0.00 in - - ()
Sea Level Pressure  
Sea Level Pressure 30.01 in    
Wind  
Wind Speed 4 mph (West)    
Max Wind Speed 18 mph    
Max Gust Speed 28 mph    
Visibility 10 miles    
Events      
Averages and records for this station are not official NWS values.
T = Trace of Precipitation, MM = Missing Value Source: NWS Daily Summary

Daily Weather History Graph

Daily Weather History Graph

Search for Another Location

Airport or City:

Trip Planner

Search our weather history database for the weather conditions in past years. The results will help you decide how hot, cold, wet, or windy it might be!

Date:

Astronomy

Apr. 24, 2013 Rise Set
Actual Time 6:31 AM MDT 7:57 PM MDT
Civil Twilight 6:05 AM MDT 8:24 PM MDT
Nautical Twilight 5:32 AM MDT 8:56 PM MDT
Astronomical Twilight 4:59 AM MDT 9:30 PM MDT
Moon 7:05 PM MDT (4/24) 5:35 AM MDT (4/24)
Length of Visible Light 14h 19m
Length of Day
13h 25m
Waxing Gibbous, 98% of the Moon is Illuminated
Apr 24
Waxing Gibbous
Apr 25
Full
May 2
Last Quarter
May 9
New
May 17
First Quarter

Hourly Weather History & Observations

Time (MDT) Temp. Windchill Dew Point Humidity Pressure Visibility Wind Dir Wind Speed Gust Speed Precip Events Conditions
12:53 AM 21.9 °F - -9.9 °F 24% 30.05 in 10.0 mi Calm Calm - N/A   Clear
1:53 AM 23.0 °F 18.4 °F -9.9 °F 23% 30.05 in 10.0 mi East 3.5 mph - N/A   Clear
2:53 AM 19.0 °F - -9.9 °F 27% 30.04 in 10.0 mi Calm Calm - N/A   Clear
3:53 AM 17.1 °F - -9.0 °F 31% 30.05 in 10.0 mi Calm Calm - N/A   Clear
4:53 AM 15.1 °F - -9.9 °F 32% 30.06 in 10.0 mi Calm Calm - N/A   Clear
5:53 AM 12.9 °F - -8.0 °F 39% 30.05 in 10.0 mi Calm Calm - N/A   Clear
6:53 AM 15.1 °F - -8.0 °F 36% 30.08 in 10.0 mi Calm Calm - N/A   Clear
7:53 AM 25.0 °F - -6.0 °F 26% 30.08 in 10.0 mi Calm Calm - N/A   Clear
8:53 AM 37.9 °F - -8.0 °F 14% 30.04 in 10.0 mi Calm Calm - N/A   Clear
9:53 AM 46.9 °F - -6.0 °F 11% 30.03 in 10.0 mi Calm Calm - N/A   Clear
10:53 AM 54.0 °F - -4.0 °F 9% 30.03 in 10.0 mi SSW 5.8 mph - N/A   Clear
11:53 AM 63.0 °F - 5.0 °F 10% 30.12 in 10.0 mi West 17.3 mph 25.3 mph N/A   Clear
12:53 PM 64.0 °F - 6.1 °F 10% 29.97 in 10.0 mi West 13.8 mph 24.2 mph N/A   Clear
1:53 PM 64.9 °F - 1.9 °F 8% 29.96 in 10.0 mi West 18.4 mph 27.6 mph N/A   Clear
2:53 PM 64.9 °F - 3.0 °F 9% 29.97 in 10.0 mi West 11.5 mph 25.3 mph N/A   Clear
3:53 PM 66.0 °F - 6.1 °F 9% 29.96 in 10.0 mi West 12.7 mph 27.6 mph N/A   Clear
4:53 PM 64.9 °F - 9.0 °F 11% 29.95 in 10.0 mi WSW 17.3 mph 26.5 mph N/A   Unknown
5:53 PM 63.0 °F - 7.0 °F 11% 29.99 in 10.0 mi WNW 12.7 mph 24.2 mph N/A   Clear
6:53 PM 61.0 °F - 6.1 °F 11% 29.99 in 10.0 mi WNW 4.6 mph - N/A   Clear
7:53 PM 55.9 °F - -4.0 °F 9% 29.99 in 10.0 mi East 9.2 mph - N/A   Clear
8:53 PM 54.0 °F - -8.0 °F 8% 29.95 in 10.0 mi East 11.5 mph 17.3 mph N/A   Partly Cloudy
9:53 PM 53.1 °F - -7.1 °F 8% 29.94 in 10.0 mi Variable 5.8 mph - N/A   Clear
10:53 PM 52.0 °F - -7.1 °F 9% 29.93 in 10.0 mi Variable 5.8 mph - N/A   Clear
11:53 PM 51.1 °F - -8.0 °F 9% 29.88 in 10.0 mi Calm Calm - N/A   Clear